Location: Pitton
(51.0667°N, 1.7000°W)
Time: 19:03:46
(UTC+00:00)

CZ-4C R/B - Pass Details

Date: 17 September 2019
Orbit: 653 x 1349 km, 63.4° (Epoch: 19 October)

Event Time Altitude Azimuth Distance (km) Brightness Sun altitude
Rises 23:36:47 0° 314° (NW) 3,705 6.2 -36.6°
Reaches altitude 10° 23:39:13 10° 317° (NW) 2,849 5.5 -36.7°
Enters shadow 23:44:45 60° 344° (NNW) 1,305 3.2 -36.8°
